Aérodrome :
LOGIN :

S'inscrire | Disclaimer

   EN    FR    IT 

 










Légende :    VFR   VFR Marginal   IFR   IFR Intensif   IFR Très Intensif
Visi : 
Plafond : 
>= 8 km
>= 3000ft
5 à 8 km
1000 à 3000 ft
1500m à 5 km
500 à 1000 ft
800 à 1500m
200 à 500 ft
< 800m
< 200 ft
Symboles :   Orages  Brouillard  Fortes neiges  Fortes précipitations  Vent > 20 kt
SIGMETs :   Divers  Orages  Givrage  Turbulence  Onde Orograph.  Cendres Volcan.







- Altitude de l'aérodrome : 291 ft
- Code IATA : ORY
- Voir les cartes d'approche


LFPO - Paris-Orly

DERNIER METAR :
  • 171000Z VRB03KT CAVOK 18/13 Q1019 NOSIG

METARs EXPIRÉS :
  • 170930Z VRB01KT CAVOK 17/13 Q1019 NOSIG
  • 170900Z VRB03KT CAVOK 16/13 Q1019 NOSIG
  • 170830Z VRB03KT CAVOK 14/13 Q1019 NOSIG
  • 170800Z 29003KT 9999 FEW014 SCT100 13/12 Q1019 NOSIG
  • 170730Z 29002KT CAVOK 13/12 Q1019 NOSIG

TAF TAF LFPO
Valide du 17 à 06h jusqu'au 18 à 12h UTC


170500Z 1706/1812 34005KT CAVOK
BECMG 1718/1720 02010KT
PROB30
TEMPO 1806/1808 BKN008
ATIS : +33 1 49 75 65 80
Pas de NOTAMs connus pour ce terrain.



MET'MAP, la Météo Aéronautique d'un coup d'oeil ! - Copyright ORBIFLY Décembre 2007 - Disclaimer

ORBIFLY MET'MAP TEAM :

Programmation & Développement : Alexandra Zaïnal
Conception & Développement : Baudouin d'Aumeries
Co-Programmation & Développement : Marc-Olivier Méhu
Soutien technique & logistique : Manuel Goepfert

Contact : metmap@orbifly.com




SOURCES & CREDITS :

   NOAA